Kuchera_Ratio
0.0 0.0 0.0 0.0 0.0 0.0 0.0 0.0 0.0 0.0 0.0 0.0 0.0 0.0 0.0 0.0 0.0 0.0 0.0 0.0 0.0 0.0 0.0 0.0 0.0 0.0 0.0 0.0 0.0 0.0 0.0 0.0 0.0 0.0 0.0 0.0 0.0 0.0 0.0 0.0 0.0 0.0 0.0 0.0
0.0 0.0 0.0 0.0 0.0 0.0 0.0 0.0 0.0 0.0 0.0 0.0 0.0 0.0 0.0 0.0 0.0 0.0 0.0 0.0 0.0 0.0 0.0 0.0 0.0 0.0 0.0 0.0 0.0 0.0 0.0 0.0 0.0 0.0 0.0 0.0 0.0 0.0 0.0 0.0 0.0 0.0 0.0 0.0
0.0 0.0 0.0 0.0 0.0 0.0 0.0 0.0 0.0 0.0 0.0 0.0 0.0 0.0 0.0 0.0 0.0 0.0 0.0 0.0 0.0 0.0 0.0 0.0 0.0 0.0 0.0 0.0 0.0 0.0 0.0 0.0 0.0 0.0 0.0 0.0 0.0 0.0 0.0 0.0 0.0 0.0 0.0 0.0
0.0 0.0 0.0 0.0 0.0 0.0 0.0 0.0 0.0 0.0 0.0 0.0 0.0 0.0 0.0 0.0 0.0 0.0 0.0 0.0 0.0 0.0 0.0 0.0 0.0 0.0 0.0 0.0 0.0 0.0 0.0 0.0 0.0 0.0 0.0 0.0 0.0 0.0 0.0 0.0 0.0 0.0 0.0 0.0
0.0 0.0 0.0 0.0 0.0 0.0 0.0 0.0 0.0 0.0 0.0 0.0 0.0 0.0 0.0 0.0 0.0 0.0 0.0 0.0 0.0 0.0 0.0 0.0 0.0 0.0 0.0 0.0 0.0 0.0 0.0 0.0 0.0 0.0 0.0 0.0 0.0 0.0 0.0 0.0 0.0 0.0 0.0 0.0
0.0 0.0 0.0 0.0 0.0 0.0 0.0 0.0 0.0 0.0 0.0 6.3 0.0 0.0 0.0 0.0 0.0 0.0 0.0 0.0 0.0 0.0 0.0 0.0 0.0 0.0 0.0 0.0 0.0 0.0 0.0 0.0 0.0 0.0 0.0 0.0 0.0 0.0 0.0 0.0 0.0 0.0 0.0 0.0
0.0 0.0 0.0 0.0 0.0 0.0 0.0 0.0 6.7 9.3 9.5 8.7 0.0 0.0 0.0 0.0 0.0 0.0 0.0 0.0 0.0 0.0 0.0 0.0 0.0 0.0 0.0 0.0 0.0 0.0 0.0 0.0 0.0 0.0 0.0 0.0 0.0 0.0 0.0 0.0 0.0 0.0 0.0 0.0
2.0 6.9 0.0 0.0 0.0 0.0 0.0 0.0 4.3 13.0 10.5 2.6 0.0 2.3 0.0 0.0 0.0 0.0 0.0 0.0 0.0 0.0 0.0 0.0 0.0 0.0 0.0 0.0 0.0 0.0 0.0 0.0 0.0 0.0 0.0 0.0 0.0 0.0 0.0 0.0 0.0 0.0 0.0 0.0
0.0 0.0 0.0 0.0 0.0 0.0 0.0 1.0 0.0 1.2 6.7 6.1 0.0 0.0 0.0 0.0 0.0 0.0 0.0 0.0 0.0 0.0 0.0 0.0 0.0 0.0 0.0 0.0 0.0 0.0 0.0 0.0 0.0 0.0 0.0 0.0 0.0 0.0 0.0 0.0 0.0 0.0 0.0 0.0
0.0 1.7 0.0 0.0 0.0 0.0 0.0 0.0 4.2 5.6 13.0 13.0 1.1 0.0 0.0 0.0 0.0 0.0 0.0 0.0 0.0 0.0 0.0 0.0 0.0 0.0 0.0 0.0 0.0 0.0 0.0 0.0 0.0 0.0 0.0 0.0 0.0 0.0 0.0 0.0 0.0 0.0 0.0 0.0
0.0 0.0 3.1 0.0 0.0 0.0 0.0 0.0 0.0 0.0 1.7 9.1 9.5 0.0 0.0 0.0 0.0 0.0 0.0 0.0 0.0 0.0 0.0 0.0 0.0 0.0 0.0 0.0 0.0 0.0 0.0 0.0 0.0 0.0 0.0 0.0 0.0 0.0 0.0 0.0 0.0 0.0 0.0 0.0
0.0 0.0 4.5 2.7 0.0 0.0 0.0 0.0 0.0 6.8 8.8 1.2 2.3 0.0 0.0 0.0 0.0 0.0 0.0 0.0 0.0 0.0 0.0 0.0 0.0 0.0 0.0 0.0 0.0 0.0 0.0 0.0 0.0 0.0 0.0 0.0 0.0 0.0 0.0 0.0 0.0 0.0 0.0 0.0
0.0 5.2 10.2 8.8 1.5 0.0 0.0 0.0 0.0 0.0 0.0 4.5 9.5 0.6 0.0 0.0 0.0 0.0 0.0 0.0 0.0 0.0 0.0 0.0 0.0 0.0 0.0 0.0 0.0 0.0 0.0 0.0 0.0 0.0 0.0 0.0 0.0 0.0 0.0 0.0 0.0 0.0 0.0 0.0
0.0 0.0 2.6 5.9 0.0 0.0 3.5 0.0 0.0 0.0 8.3 4.9 2.2 0.0 0.0 0.0 0.0 0.0 0.0 0.0 0.0 0.0 0.0 0.0 0.0 0.0 0.0 0.0 0.0 0.0 0.0 0.0 0.0 0.0 0.0 0.0 0.0 0.0 0.0 0.0 0.0 0.0 0.0 0.0
0.0 7.5 0.0 0.0 0.0 0.0 0.0 0.0 0.0 1.2 0.0 3.7 0.0 0.0 0.0 0.0 0.0 0.0 0.0 0.0 0.0 0.0 0.0 0.0 0.0 0.0 0.0 0.0 0.0 0.0 0.0 0.0 0.0 0.0 0.2 0.6 0.9 0.7 0.8 1.3 1.5 1.4 1.0 0.7
0.0 5.8 0.4 5.8 0.0 0.0 0.1 0.0 0.0 0.0 0.0 0.0 0.0 0.0 0.0 0.0 0.0 0.0 0.0 0.0 0.0 0.0 0.0 0.0 0.0 0.0 0.0 0.0 0.0 0.0 0.0 0.5 1.4 2.1 2.3 2.2 2.4 3.1 3.2 3.3 3.4 3.4 3.6 3.4
0.0 4.7 7.8 10.5 1.1 1.1 10.0 0.5 0.0 0.0 0.0 0.0 0.4 0.0 0.0 0.0 0.0 0.0 0.0 0.0 0.0 0.0 0.0 0.0 0.0 0.0 0.0 0.2 1.3 1.9 2.3 2.5 2.7 3.0 3.3 3.9 4.8 5.5 5.4 5.1 4.9 4.8 4.5 4.2
2.0 5.0 5.4 9.8 8.0 16.1 0.0 0.0 0.0 0.0 0.0 0.0 0.0 0.0 0.0 0.0 0.0 0.0 0.0 0.0 0.0 0.0 0.0 0.0 0.0 0.0 0.0 1.5 3.6 4.3 4.5 4.5 4.5 4.6 4.9 5.5 6.4 7.2 7.5 7.5 7.3 7.4 7.3 7.1
0.0 3.6 9.4 12.7 12.3 5.1 0.0 0.0 0.0 0.0 0.0 0.0 0.0 0.0 0.0 0.0 0.0 0.0 0.0 0.0 0.0 0.0 0.0 0.0 0.0 0.4 1.6 3.7 5.2 5.9 6.3 6.4 6.6 6.8 7.7 8.6 9.3 9.5 9.9 10.3 10.7 10.7 10.8 10.3
0.0 0.0 7.1 10.0 13.8 15.2 0.0 0.0 0.0 0.0 7.6 0.0 0.0 0.0 0.0 0.0 0.0 0.0 0.0 0.0 0.0 0.0 0.0 2.1 2.1 4.0 5.8 6.9 8.2 8.4 8.4 8.5 8.9 9.8 10.9 11.7 12.1 12.3 12.5 12.4 12.5 12.6 12.1 12.0
10.4 9.0 11.8 10.4 12.4 8.4 0.0 0.0 0.0 12.2 2.9 0.0 0.0 0.0 0.0 0.0 0.0 0.0 0.0 0.0 0.0 2.5 3.2 4.1 6.4 9.4 9.6 10.1 10.2 9.9 10.3 11.1 12.1 12.7 13.3 13.6 13.9 13.9 13.8 13.9 13.9 13.5 13.2 13.1
9.2 11.4 12.1 10.1 13.1 14.2 0.0 0.0 3.3 0.0 0.0 0.0 0.0 0.0 0.0 0.0 0.0 0.0 0.0 3.4 4.3 4.3 5.2 8.0 8.2 10.2 12.1 12.4 12.1 12.0 12.6 13.4 13.7 14.4 14.6 15.0 15.0 15.1 15.1 15.4 15.1 14.8 14.4 14.8
7.8 0.2 4.3 2.9 2.6 0.0 0.0 0.0 0.0 0.0 0.0 0.0 0.0 0.0 0.0 0.0 0.0 0.0 0.3 2.5 4.5 7.6 10.0 11.0 10.9 12.4 13.2 13.0 13.1 13.3 14.2 14.6 15.2 15.7 15.9 15.9 16.0 16.2 16.3 16.5 16.3 16.4 15.8 16.1
0.0 0.0 1.3 0.6 0.0 0.0 0.0 0.0 0.0 0.0 0.0 0.0 0.0 0.0 0.5 1.8 0.5 0.0 1.3 6.7 6.8 8.8 9.4 12.2 12.8 13.7 14.5 14.4 14.7 15.2 15.6 16.1 16.5 16.7 16.9 16.9 17.0 17.0 17.2 17.2 16.6 17.6 17.8 18.0
0.0 0.0 4.1 3.6 0.0 0.0 0.0 0.0 0.0 0.0 0.0 0.0 0.4 2.6 3.2 4.8 5.2 4.9 5.1 9.0 8.2 10.6 12.7 14.2 15.0 15.3 15.6 15.9 16.2 16.6 17.1 17.3 17.1 17.3 17.5 17.7 17.7 17.9 18.2 18.3 18.6 18.5 17.8 18.0
0.0 1.3 3.8 4.9 0.0 0.0 0.0 0.0 0.0 0.3 0.0 2.1 3.5 5.1 7.1 7.3 8.9 10.3 8.3 9.7 12.4 12.8 14.6 15.7 16.3 16.7 16.5 16.7 17.4 17.7 17.8 17.8 17.7 17.9 18.0 18.0 18.3 18.7 19.1 19.7 20.3 17.9 17.6 17.5